FREQUENCY,Transmission
 1350000000 ,-042.113
 1350112500 ,-042.217
 1350225000 ,-042.205
 1350337500 ,-042.203
 1350450000 ,-042.250
 1350562500 ,-042.361
 1350675000 ,-042.379
 1350787500 ,-042.387
 1350900000 ,-042.455
 1351012500 ,-042.447
 1351125000 ,-042.525
 1351237500 ,-042.568
 1351350000 ,-042.467
 1351462500 ,-042.535
 1351575000 ,-042.637
 1351687500 ,-042.602
 1351800000 ,-042.645
 1351912500 ,-042.637
 1352025000 ,-042.670
 1352137500 ,-042.744
 1352250000 ,-042.758
 1352362500 ,-042.750
 1352475000 ,-042.662
 1352587500 ,-042.805
 1352700000 ,-042.756
 1352812500 ,-042.809
 1352925000 ,-042.785
 1353037500 ,-042.762
 1353150000 ,-042.828
 1353262500 ,-042.775
 1353375000 ,-042.754
 1353487500 ,-042.695
 1353600000 ,-042.723
 1353712500 ,-042.697
 1353825000 ,-042.654
 1353937500 ,-042.697
 1354050000 ,-042.689
 1354162500 ,-042.635
 1354275000 ,-042.627
 1354387500 ,-042.570
 1354500000 ,-042.582
 1354612500 ,-042.477
 1354725000 ,-042.398
 1354837500 ,-042.418
 1354950000 ,-042.299
 1355062500 ,-042.338
 1355175000 ,-042.240
 1355287500 ,-042.236
 1355400000 ,-042.137
 1355512500 ,-042.123
 1355625000 ,-042.068
 1355737500 ,-041.982
 1355850000 ,-041.992
 1355962500 ,-041.949
 1356075000 ,-041.936
 1356187500 ,-041.898
 1356300000 ,-041.795
 1356412500 ,-041.748
 1356525000 ,-041.729
 1356637500 ,-041.637
 1356750000 ,-041.566
 1356862500 ,-041.424
 1356975000 ,-041.338
 1357087500 ,-041.193
 1357200000 ,-041.100
 1357312500 ,-040.869
 1357425000 ,-040.748
 1357537500 ,-040.602
 1357650000 ,-040.479
 1357762500 ,-040.283
 1357875000 ,-040.146
 1357987500 ,-039.957
 1358100000 ,-039.824
 1358212500 ,-039.637
 1358325000 ,-039.451
 1358437500 ,-039.230
 1358550000 ,-039.008
 1358662500 ,-038.783
 1358775000 ,-038.541
 1358887500 ,-038.303
 1359000000 ,-038.020
 1359112500 ,-037.732
 1359225000 ,-037.410
 1359337500 ,-037.117
 1359450000 ,-036.797
 1359562500 ,-036.451
 1359675000 ,-036.162
 1359787500 ,-035.830
 1359900000 ,-035.504
 1360012500 ,-035.180
 1360125000 ,-034.822
 1360237500 ,-034.531
 1360350000 ,-034.217
 1360462500 ,-033.859
 1360575000 ,-033.531
 1360687500 ,-033.223
 1360800000 ,-032.898
 1360912500 ,-032.582
 1361025000 ,-032.320
 1361137500 ,-032.014
 1361250000 ,-031.727
 1361362500 ,-031.436
 1361475000 ,-031.117
 1361587500 ,-030.834
 1361700000 ,-030.563
 1361812500 ,-030.284
 1361925000 ,-030.031
 1362037500 ,-029.785
 1362150000 ,-029.537
 1362262500 ,-029.278
 1362375000 ,-029.012
 1362487500 ,-028.753
 1362600000 ,-028.513
 1362712500 ,-028.257
 1362825000 ,-028.022
 1362937500 ,-027.806
 1363050000 ,-027.592
 1363162500 ,-027.394
 1363275000 ,-027.225
 1363387500 ,-027.084
 1363500000 ,-026.895
 1363612500 ,-026.686
 1363725000 ,-026.469
 1363837500 ,-026.245
 1363950000 ,-026.028
 1364062500 ,-025.798
 1364175000 ,-025.559
 1364287500 ,-025.305
 1364400000 ,-025.025
 1364512500 ,-024.768
 1364625000 ,-024.510
 1364737500 ,-024.224
 1364850000 ,-023.937
 1364962500 ,-023.632
 1365075000 ,-023.330
 1365187500 ,-023.028
 1365300000 ,-022.694
 1365412500 ,-022.371
 1365525000 ,-022.044
 1365637500 ,-021.709
 1365750000 ,-021.386
 1365862500 ,-021.089
 1365975000 ,-020.818
 1366087500 ,-020.563
 1366200000 ,-020.349
 1366312500 ,-020.162
 1366425000 ,-020.005
 1366537500 ,-019.859
 1366650000 ,-019.731
 1366762500 ,-019.596
 1366875000 ,-019.461
 1366987500 ,-019.335
 1367100000 ,-019.182
 1367212500 ,-019.014
 1367325000 ,-018.822
 1367437500 ,-018.598
 1367550000 ,-018.338
 1367662500 ,-018.074
 1367775000 ,-017.812
 1367887500 ,-017.540
 1368000000 ,-017.271
 1368112500 ,-017.006
 1368225000 ,-016.775
 1368337500 ,-016.541
 1368450000 ,-016.296
 1368562500 ,-016.097
 1368675000 ,-015.903
 1368787500 ,-015.719
 1368900000 ,-015.525
 1369012500 ,-015.337
 1369125000 ,-015.156
 1369237500 ,-014.983
 1369350000 ,-014.823
 1369462500 ,-014.647
 1369575000 ,-014.500
 1369687500 ,-014.369
 1369800000 ,-014.246
 1369912500 ,-014.127
 1370025000 ,-014.032
 1370137500 ,-013.935
 1370250000 ,-013.839
 1370362500 ,-013.755
 1370475000 ,-013.665
 1370587500 ,-013.580
 1370700000 ,-013.499
 1370812500 ,-013.421
 1370925000 ,-013.335
 1371037500 ,-013.233
 1371150000 ,-013.149
 1371262500 ,-013.033
 1371375000 ,-012.930
 1371487500 ,-012.823
 1371600000 ,-012.701
 1371712500 ,-012.586
 1371825000 ,-012.432
 1371937500 ,-012.295
 1372050000 ,-012.150
 1372162500 ,-011.981
 1372275000 ,-011.826
 1372387500 ,-011.676
 1372500000 ,-011.525
 1372612500 ,-011.384
 1372725000 ,-011.238
 1372837500 ,-011.099
 1372950000 ,-010.956
 1373062500 ,-010.832
 1373175000 ,-010.686
 1373287500 ,-010.550
 1373400000 ,-010.412
 1373512500 ,-010.296
 1373625000 ,-010.175
 1373737500 ,-010.060
 1373850000 ,-009.942
 1373962500 ,-009.833
 1374075000 ,-009.731
 1374187500 ,-009.630
 1374300000 ,-009.539
 1374412500 ,-009.448
 1374525000 ,-009.356
 1374637500 ,-009.265
 1374750000 ,-009.184
 1374862500 ,-009.099
 1374975000 ,-009.020
 1375087500 ,-008.941
 1375200000 ,-008.883
 1375312500 ,-008.798
 1375425000 ,-008.744
 1375537500 ,-008.691
 1375650000 ,-008.627
 1375762500 ,-008.590
 1375875000 ,-008.550
 1375987500 ,-008.515
 1376100000 ,-008.486
 1376212500 ,-008.445
 1376325000 ,-008.393
 1376437500 ,-008.352
 1376550000 ,-008.298
 1376662500 ,-008.237
 1376775000 ,-008.178
 1376887500 ,-008.139
 1377000000 ,-008.106
 1377112500 ,-008.065
 1377225000 ,-008.045
 1377337500 ,-008.018
 1377450000 ,-007.977
 1377562500 ,-007.914
 1377675000 ,-007.856
 1377787500 ,-007.777
 1377900000 ,-007.691
 1378012500 ,-007.582
 1378125000 ,-007.459
 1378237500 ,-007.329
 1378350000 ,-007.198
 1378462500 ,-007.071
 1378575000 ,-006.937
 1378687500 ,-006.810
 1378800000 ,-006.691
 1378912500 ,-006.572
 1379025000 ,-006.459
 1379137500 ,-006.337
 1379250000 ,-006.241
 1379362500 ,-006.136
 1379475000 ,-006.040
 1379587500 ,-005.942
 1379700000 ,-005.857
 1379812500 ,-005.770
 1379925000 ,-005.695
 1380037500 ,-005.621
 1380150000 ,-005.544
 1380262500 ,-005.472
 1380375000 ,-005.388
 1380487500 ,-005.328
 1380600000 ,-005.258
 1380712500 ,-005.195
 1380825000 ,-005.133
 1380937500 ,-005.076
 1381050000 ,-005.016
 1381162500 ,-004.964
 1381275000 ,-004.910
 1381387500 ,-004.850
 1381500000 ,-004.798
 1381612500 ,-004.752
 1381725000 ,-004.708
 1381837500 ,-004.658
 1381950000 ,-004.616
 1382062500 ,-004.567
 1382175000 ,-004.526
 1382287500 ,-004.485
 1382400000 ,-004.443
 1382512500 ,-004.402
 1382625000 ,-004.362
 1382737500 ,-004.322
 1382850000 ,-004.285
 1382962500 ,-004.248
 1383075000 ,-004.208
 1383187500 ,-004.180
 1383300000 ,-004.157
 1383412500 ,-004.120
 1383525000 ,-004.088
 1383637500 ,-004.050
 1383750000 ,-004.021
 1383862500 ,-003.994
 1383975000 ,-003.971
 1384087500 ,-003.939
 1384200000 ,-003.916
 1384312500 ,-003.891
 1384425000 ,-003.865
 1384537500 ,-003.838
 1384650000 ,-003.817
 1384762500 ,-003.798
 1384875000 ,-003.770
 1384987500 ,-003.749
 1385100000 ,-003.728
 1385212500 ,-003.705
 1385325000 ,-003.684
 1385437500 ,-003.662
 1385550000 ,-003.646
 1385662500 ,-003.623
 1385775000 ,-003.608
 1385887500 ,-003.589
 1386000000 ,-003.565
 1386112500 ,-003.553
 1386225000 ,-003.541
 1386337500 ,-003.520
 1386450000 ,-003.514
 1386562500 ,-003.493
 1386675000 ,-003.479
 1386787500 ,-003.467
 1386900000 ,-003.449
 1387012500 ,-003.434
 1387125000 ,-003.423
 1387237500 ,-003.415
 1387350000 ,-003.405
 1387462500 ,-003.399
 1387575000 ,-003.383
 1387687500 ,-003.373
 1387800000 ,-003.367
 1387912500 ,-003.367
 1388025000 ,-003.366
 1388137500 ,-003.360
 1388250000 ,-003.354
 1388362500 ,-003.349
 1388475000 ,-003.338
 1388587500 ,-003.334
 1388700000 ,-003.328
 1388812500 ,-003.324
 1388925000 ,-003.320
 1389037500 ,-003.320
 1389150000 ,-003.322
 1389262500 ,-003.325
 1389375000 ,-003.306
 1389487500 ,-003.307
 1389600000 ,-003.292
 1389712500 ,-003.299
 1389825000 ,-003.294
 1389937500 ,-003.296
 1390050000 ,-003.293
 1390162500 ,-003.293
 1390275000 ,-003.293
 1390387500 ,-003.295
 1390500000 ,-003.289
 1390612500 ,-003.289
 1390725000 ,-003.294
 1390837500 ,-003.285
 1390950000 ,-003.291
 1391062500 ,-003.293
 1391175000 ,-003.295
 1391287500 ,-003.292
 1391400000 ,-003.289
 1391512500 ,-003.283
 1391625000 ,-003.286
 1391737500 ,-003.291
 1391850000 ,-003.301
 1391962500 ,-003.303
 1392075000 ,-003.302
 1392187500 ,-003.305
 1392300000 ,-003.304
 1392412500 ,-003.305
 1392525000 ,-003.303
 1392637500 ,-003.314
 1392750000 ,-003.314
 1392862500 ,-003.312
 1392975000 ,-003.312
 1393087500 ,-003.322
 1393200000 ,-003.326
 1393312500 ,-003.325
 1393425000 ,-003.331
 1393537500 ,-003.338
 1393650000 ,-003.341
 1393762500 ,-003.346
 1393875000 ,-003.351
 1393987500 ,-003.370
 1394100000 ,-003.369
 1394212500 ,-003.376
 1394325000 ,-003.380
 1394437500 ,-003.386
 1394550000 ,-003.385
 1394662500 ,-003.385
 1394775000 ,-003.388
 1394887500 ,-003.397
 1395000000 ,-003.397
 1395112500 ,-003.397
 1395225000 ,-003.398
 1395337500 ,-003.407
 1395450000 ,-003.403
 1395562500 ,-003.411
 1395675000 ,-003.413
 1395787500 ,-003.425
 1395900000 ,-003.428
 1396012500 ,-003.433
 1396125000 ,-003.439
 1396237500 ,-003.439
 1396350000 ,-003.453
 1396462500 ,-003.454
 1396575000 ,-003.458
 1396687500 ,-003.463
 1396800000 ,-003.472
 1396912500 ,-003.475
 1397025000 ,-003.475
 1397137500 ,-003.476
 1397250000 ,-003.482
 1397362500 ,-003.490
 1397475000 ,-003.494
 1397587500 ,-003.499
 1397700000 ,-003.506
 1397812500 ,-003.511
 1397925000 ,-003.521
 1398037500 ,-003.525
 1398150000 ,-003.537
 1398262500 ,-003.541
 1398375000 ,-003.545
 1398487500 ,-003.548
 1398600000 ,-003.550
 1398712500 ,-003.550
 1398825000 ,-003.552
 1398937500 ,-003.547
 1399050000 ,-003.547
 1399162500 ,-003.550
 1399275000 ,-003.545
 1399387500 ,-003.549
 1399500000 ,-003.561
 1399612500 ,-003.563
 1399725000 ,-003.568
 1399837500 ,-003.565
 1399950000 ,-003.561
 1400062500 ,-003.568
 1400175000 ,-003.563
 1400287500 ,-003.568
 1400400000 ,-003.562
 1400512500 ,-003.559
 1400625000 ,-003.562
 1400737500 ,-003.564
 1400850000 ,-003.569
 1400962500 ,-003.568
 1401075000 ,-003.572
 1401187500 ,-003.575
 1401300000 ,-003.583
 1401412500 ,-003.583
 1401525000 ,-003.593
 1401637500 ,-003.598
 1401750000 ,-003.609
 1401862500 ,-003.619
 1401975000 ,-003.630
 1402087500 ,-003.641
 1402200000 ,-003.658
 1402312500 ,-003.677
 1402425000 ,-003.693
 1402537500 ,-003.709
 1402650000 ,-003.715
 1402762500 ,-003.742
 1402875000 ,-003.762
 1402987500 ,-003.782
 1403100000 ,-003.803
 1403212500 ,-003.821
 1403325000 ,-003.851
 1403437500 ,-003.872
 1403550000 ,-003.902
 1403662500 ,-003.934
 1403775000 ,-003.956
 1403887500 ,-003.992
 1404000000 ,-004.018
 1404112500 ,-004.049
 1404225000 ,-004.061
 1404337500 ,-004.098
 1404450000 ,-004.118
 1404562500 ,-004.131
 1404675000 ,-004.151
 1404787500 ,-004.165
 1404900000 ,-004.182
 1405012500 ,-004.198
 1405125000 ,-004.210
 1405237500 ,-004.214
 1405350000 ,-004.235
 1405462500 ,-004.253
 1405575000 ,-004.267
 1405687500 ,-004.271
 1405800000 ,-004.298
 1405912500 ,-004.308
 1406025000 ,-004.318
 1406137500 ,-004.332
 1406250000 ,-004.344
 1406362500 ,-004.368
 1406475000 ,-004.380
 1406587500 ,-004.397
 1406700000 ,-004.414
 1406812500 ,-004.440
 1406925000 ,-004.460
 1407037500 ,-004.468
 1407150000 ,-004.490
 1407262500 ,-004.504
 1407375000 ,-004.522
 1407487500 ,-004.538
 1407600000 ,-004.557
 1407712500 ,-004.583
 1407825000 ,-004.610
 1407937500 ,-004.635
 1408050000 ,-004.662
 1408162500 ,-004.691
 1408275000 ,-004.714
 1408387500 ,-004.742
 1408500000 ,-004.769
 1408612500 ,-004.798
 1408725000 ,-004.827
 1408837500 ,-004.855
 1408950000 ,-004.893
 1409062500 ,-004.920
 1409175000 ,-004.953
 1409287500 ,-004.987
 1409400000 ,-005.022
 1409512500 ,-005.053
 1409625000 ,-005.102
 1409737500 ,-005.139
 1409850000 ,-005.196
 1409962500 ,-005.244
 1410075000 ,-005.310
 1410187500 ,-005.363
 1410300000 ,-005.413
 1410412500 ,-005.481
 1410525000 ,-005.542
 1410637500 ,-005.614
 1410750000 ,-005.674
 1410862500 ,-005.747
 1410975000 ,-005.818
 1411087500 ,-005.886
 1411200000 ,-005.966
 1411312500 ,-006.046
 1411425000 ,-006.137
 1411537500 ,-006.213
 1411650000 ,-006.296
 1411762500 ,-006.380
 1411875000 ,-006.471
 1411987500 ,-006.559
 1412100000 ,-006.651
 1412212500 ,-006.747
 1412325000 ,-006.839
 1412437500 ,-006.927
 1412550000 ,-007.026
 1412662500 ,-007.129
 1412775000 ,-007.221
 1412887500 ,-007.331
 1413000000 ,-007.440
 1413112500 ,-007.529
 1413225000 ,-007.645
 1413337500 ,-007.750
 1413450000 ,-007.856
 1413562500 ,-007.960
 1413675000 ,-008.071
 1413787500 ,-008.190
 1413900000 ,-008.314
 1414012500 ,-008.447
 1414125000 ,-008.580
 1414237500 ,-008.729
 1414350000 ,-008.878
 1414462500 ,-009.013
 1414575000 ,-009.164
 1414687500 ,-009.308
 1414800000 ,-009.464
 1414912500 ,-009.603
 1415025000 ,-009.766
 1415137500 ,-009.906
 1415250000 ,-010.063
 1415362500 ,-010.206
 1415475000 ,-010.344
 1415587500 ,-010.500
 1415700000 ,-010.642
 1415812500 ,-010.807
 1415925000 ,-010.958
 1416037500 ,-011.112
 1416150000 ,-011.274
 1416262500 ,-011.438
 1416375000 ,-011.584
 1416487500 ,-011.720
 1416600000 ,-011.877
 1416712500 ,-012.035
 1416825000 ,-012.193
 1416937500 ,-012.348
 1417050000 ,-012.513
 1417162500 ,-012.684
 1417275000 ,-012.837
 1417387500 ,-013.005
 1417500000 ,-013.156
 1417612500 ,-013.317
 1417725000 ,-013.483
 1417837500 ,-013.629
 1417950000 ,-013.799
 1418062500 ,-013.957
 1418175000 ,-014.120
 1418287500 ,-014.280
 1418400000 ,-014.451
 1418512500 ,-014.617
 1418625000 ,-014.784
 1418737500 ,-014.965
 1418850000 ,-015.126
 1418962500 ,-015.294
 1419075000 ,-015.467
 1419187500 ,-015.651
 1419300000 ,-015.812
 1419412500 ,-015.975
 1419525000 ,-016.129
 1419637500 ,-016.296
 1419750000 ,-016.460
 1419862500 ,-016.614
 1419975000 ,-016.781
 1420087500 ,-016.944
 1420200000 ,-017.122
 1420312500 ,-017.275
 1420425000 ,-017.443
 1420537500 ,-017.618
 1420650000 ,-017.747
 1420762500 ,-017.930
 1420875000 ,-018.082
 1420987500 ,-018.240
 1421100000 ,-018.386
 1421212500 ,-018.508
 1421325000 ,-018.660
 1421437500 ,-018.828
 1421550000 ,-018.988
 1421662500 ,-019.154
 1421775000 ,-019.311
 1421887500 ,-019.472
 1422000000 ,-019.611
 1422112500 ,-019.755
 1422225000 ,-019.916
 1422337500 ,-020.047
 1422450000 ,-020.209
 1422562500 ,-020.386
 1422675000 ,-020.512
 1422787500 ,-020.683
 1422900000 ,-020.817
 1423012500 ,-020.989
 1423125000 ,-021.130
 1423237500 ,-021.293
 1423350000 ,-021.463
 1423462500 ,-021.628
 1423575000 ,-021.778
 1423687500 ,-021.928
 1423800000 ,-022.069
 1423912500 ,-022.213
 1424025000 ,-022.361
 1424137500 ,-022.511
 1424250000 ,-022.656
 1424362500 ,-022.807
 1424475000 ,-022.940
 1424587500 ,-023.096
 1424700000 ,-023.241
 1424812500 ,-023.386
 1424925000 ,-023.530
 1425037500 ,-023.672
 1425150000 ,-023.820
 1425262500 ,-023.965
 1425375000 ,-024.110
 1425487500 ,-024.246
 1425600000 ,-024.392
 1425712500 ,-024.531
 1425825000 ,-024.673
 1425937500 ,-024.820
 1426050000 ,-024.974
 1426162500 ,-025.146
 1426275000 ,-025.294
 1426387500 ,-025.439
 1426500000 ,-025.582
 1426612500 ,-025.734
 1426725000 ,-025.880
 1426837500 ,-026.021
 1426950000 ,-026.174
 1427062500 ,-026.313
 1427175000 ,-026.449
 1427287500 ,-026.602
 1427400000 ,-026.738
 1427512500 ,-026.873
 1427625000 ,-027.015
 1427737500 ,-027.157
 1427850000 ,-027.286
 1427962500 ,-027.440
 1428075000 ,-027.585
 1428187500 ,-027.706
 1428300000 ,-027.854
 1428412500 ,-027.990
 1428525000 ,-028.123
 1428637500 ,-028.265
 1428750000 ,-028.407
 1428862500 ,-028.570
 1428975000 ,-028.719
 1429087500 ,-028.878
 1429200000 ,-029.042
 1429312500 ,-029.204
 1429425000 ,-029.363
 1429537500 ,-029.523
 1429650000 ,-029.694
 1429762500 ,-029.851
 1429875000 ,-030.006
 1429987500 ,-030.190
 1430100000 ,-030.349
 1430212500 ,-030.501
 1430325000 ,-030.684
 1430437500 ,-030.847
 1430550000 ,-031.023
 1430662500 ,-031.200
 1430775000 ,-031.376
 1430887500 ,-031.530
 1431000000 ,-031.740
 1431112500 ,-031.889
 1431225000 ,-032.051
 1431337500 ,-032.215
 1431450000 ,-032.404
 1431562500 ,-032.580
 1431675000 ,-032.781
 1431787500 ,-032.959
 1431900000 ,-033.166
 1432012500 ,-033.363
 1432125000 ,-033.564
 1432237500 ,-033.775
 1432350000 ,-034.006
 1432462500 ,-034.223
 1432575000 ,-034.473
 1432687500 ,-034.705
 1432800000 ,-034.961
 1432912500 ,-035.225
 1433025000 ,-035.477
 1433137500 ,-035.760
 1433250000 ,-036.063
 1433362500 ,-036.342
 1433475000 ,-036.643
 1433587500 ,-036.908
 1433700000 ,-037.182
 1433812500 ,-037.490
 1433925000 ,-037.801
 1434037500 ,-038.078
 1434150000 ,-038.330
 1434262500 ,-038.594
 1434375000 ,-038.791
 1434487500 ,-039.037
 1434600000 ,-039.260
 1434712500 ,-039.506
 1434825000 ,-039.688
 1434937500 ,-039.898
 1435050000 ,-040.010
 1435162500 ,-040.217
 1435275000 ,-040.367
 1435387500 ,-040.510
 1435500000 ,-040.563
 1435612500 ,-040.645
 1435725000 ,-040.777
 1435837500 ,-040.795
 1435950000 ,-040.875
 1436062500 ,-040.832
 1436175000 ,-040.826
 1436287500 ,-040.846
 1436400000 ,-040.770
 1436512500 ,-040.760
 1436625000 ,-040.676
 1436737500 ,-040.600
 1436850000 ,-040.576
 1436962500 ,-040.508
 1437075000 ,-040.443
 1437187500 ,-040.369
 1437300000 ,-040.328
 1437412500 ,-040.299
 1437525000 ,-040.244
 1437637500 ,-040.172
 1437750000 ,-040.230
 1437862500 ,-040.193
 1437975000 ,-040.168
 1438087500 ,-040.104
 1438200000 ,-040.125
 1438312500 ,-040.074
 1438425000 ,-039.969
 1438537500 ,-039.898
 1438650000 ,-039.813
 1438762500 ,-039.793
 1438875000 ,-039.828
 1438987500 ,-039.775
 1439100000 ,-039.754
 1439212500 ,-039.688
 1439325000 ,-039.553
 1439437500 ,-039.428
 1439550000 ,-039.357
 1439662500 ,-039.326
 1439775000 ,-039.268
 1439887500 ,-039.176
